South Portland, ME

1:25 AM EST on February 23, 2017 (GMT -0500)
Portland International

Weather History for KPWM - March, 2014

Change the Weather History Date:

Thursday, March 13, 2014

  Actual Average Record
Temperature  
Mean Temperature 17 °F 32 °F  
Max Temperature 25 °F 41 °F 65 °F (1946)
Min Temperature 15 °F 24 °F 0 °F (1941)
Degree Days  
Heating Degree Days 48 33  
Month to date heating degree days 446  
Since 1 July heating degree days 5488  
Cooling Degree Days 0 0  
Month to date cooling degree days 0  
Year to date cooling degree days 0  
Moisture  
Dew Point 11 °F    
Average Humidity 69    
Maximum Humidity 84    
Minimum Humidity 39    
Precipitation  
Precipitation 0.02 in 0.13 in 2.69 in (1939)
Month to date precipitation 1.67  
Year to date precipitation 8.30  
Snow  
Snow 0.00 in 0.40 in 16.90 in (1993)
Month to date snowfall 6.3  
Since 1 July snowfall 52.7  
Snow Depth -    
Sea Level Pressure  
Sea Level Pressure 29.35 in    
Wind  
Wind Speed 19 mph (NNW)    
Max Wind Speed 25 mph    
Max Gust Speed 40 mph    
Visibility 4 miles    
Events Snow    
T = Trace of Precipitation, MM = Missing Value Source: NWS Daily Summary

Daily Weather History Graph

Daily Weather History Graph

Search for Another Location

Airport or City:

Trip Planner

Search our weather history database for the weather conditions in past years. The results will help you decide how hot, cold, wet, or windy it might be!

Date:

Astronomy

Mar. 13, 2014 Rise Set
Actual Time 6:57 AM EDT 6:45 PM EDT
Civil Twilight 6:28 AM EDT 7:13 PM EDT
Nautical Twilight 5:55 AM EDT 7:46 PM EDT
Astronomical Twilight 5:21 AM EDT 8:20 PM EDT
Moon 4:04 PM EDT (3/13) 5:06 AM EDT (3/13)
Length of Visible Light 12h 45m
Length of Day
11h 47m
Waxing Gibbous, 91% of the Moon is Illuminated
Mar 13
Waxing Gibbous
Mar 16
Full
Mar 23
Last Quarter
Mar 30
New
Apr 7
First Quarter

Hourly Weather History & Observations

Time (EDT) Temp. Windchill Dew Point Humidity Pressure Visibility Wind Dir Wind Speed Gust Speed Precip Events Conditions
12:51 AM 25.0 °F 10.6 °F 19.0 °F 78% 29.09 in 10.0 mi NNE 20.7 mph 40.3 mph 0.00 in   Overcast
1:51 AM 24.1 °F 9.4 °F 19.0 °F 81% 29.11 in 10.0 mi North 20.7 mph 29.9 mph 0.00 in   Overcast
2:51 AM 23.0 °F - 17.1 °F 78% 29.13 in 6.0 mi North - - 0.00 in Snow Light Snow
3:51 AM 21.0 °F 5.7 °F 16.0 °F 81% 29.08 in 4.0 mi NNW 19.6 mph 33.4 mph 0.01 in Snow Light Snow
4:37 AM 19.0 °F 4.5 °F 14.0 °F 81% 29.07 in 2.5 mi North 16.1 mph 33.4 mph 0.00 in Snow Light Snow
4:51 AM 19.0 °F 1.6 °F 12.9 °F 77% 29.13 in 1.8 mi North 24.2 mph 40.3 mph 0.00 in Snow Light Snow
5:38 AM 19.0 °F 3.2 °F 14.0 °F 81% 29.17 in 1.5 mi NNW 19.6 mph 29.9 mph 0.00 in Snow Light Snow
5:49 AM 19.4 °F 3.2 °F 14.0 °F 80% 29.18 in 1.5 mi North 20.7 mph 32.2 mph 0.00 in Snow Light Snow
5:51 AM 19.0 °F 4.5 °F 14.0 °F 81% 29.18 in 1.5 mi North 16.1 mph 32.2 mph 0.01 in Snow Light Snow
6:02 AM 18.0 °F 1.3 °F 14.0 °F 84% 29.18 in 1.2 mi North 20.7 mph 31.1 mph 0.00 in Snow Light Snow
6:51 AM 19.0 °F 1.3 °F 12.9 °F 77% 29.20 in 2.0 mi North 25.3 mph 32.2 mph 0.00 in Snow Light Snow
7:03 AM 19.0 °F 2.4 °F 12.9 °F 77% 29.18 in 9.0 mi North 21.9 mph 28.8 mph 0.00 in Snow Light Snow
7:35 AM 19.0 °F 4.0 °F 12.9 °F 77% 29.20 in 1.5 mi North 17.3 mph 32.2 mph 0.00 in Snow Light Snow
7:51 AM 19.0 °F 3.2 °F 12.9 °F 77% 29.21 in 1.8 mi North 19.6 mph 34.5 mph 0.00 in Snow Light Snow
8:04 AM 19.0 °F 3.6 °F 12.0 °F 74% 29.21 in 2.0 mi North 18.4 mph 38.0 mph 0.00 in Snow Light Snow
8:51 AM 19.9 °F 7.3 °F 12.9 °F 74% 29.24 in 2.0 mi NNW 12.7 mph 24.2 mph 0.00 in Snow Light Snow
9:12 AM 19.0 °F 6.8 °F 12.9 °F 77% 29.25 in 1.5 mi NNW 11.5 mph - 0.00 in Snow Light Snow
9:51 AM 19.0 °F 6.1 °F 12.9 °F 77% 29.29 in 2.0 mi NW 12.7 mph - 0.00 in Snow Light Snow
10:22 AM 19.0 °F 4.0 °F 14.0 °F 81% 29.28 in 0.5 mi NW 17.3 mph 23.0 mph 0.00 in Snow Snow
10:32 AM 19.0 °F 6.8 °F 14.0 °F 81% 29.28 in 0.5 mi NNW 11.5 mph 23.0 mph 0.00 in Snow Snow
10:51 AM 19.0 °F 3.6 °F 12.0 °F 74% 29.31 in 1.0 mi NNW 18.4 mph 24.2 mph 0.01 in Snow Light Snow
10:52 AM 19.0 °F 4.5 °F 12.0 °F 74% 29.30 in 0.8 mi NW 16.1 mph 24.2 mph 0.00 in Snow Light Snow
11:03 AM 19.0 °F 2.4 °F 12.0 °F 74% 29.31 in 0.8 mi NNW 21.9 mph 27.6 mph 0.00 in Snow Light Snow
11:51 AM 19.0 °F 5.6 °F 12.9 °F 77% 29.34 in 0.8 mi NW 13.8 mph - 0.00 in Snow Light Snow
12:51 PM 18.0 °F 0.9 °F 10.0 °F 71% 29.38 in 2.0 mi NW 21.9 mph 31.1 mph 0.00 in Snow Light Snow
1:51 PM 19.0 °F 6.1 °F 10.0 °F 68% 29.41 in 2.0 mi NW 12.7 mph 27.6 mph 0.00 in Snow Light Snow
2:27 PM 19.0 °F 2.4 °F 9.0 °F 65% 29.42 in 3.0 mi NNW 21.9 mph 29.9 mph 0.00 in   Haze
2:51 PM 18.0 °F 1.7 °F 9.0 °F 68% 29.44 in 3.0 mi NNW 19.6 mph 32.2 mph 0.00 in   Haze
3:51 PM 18.0 °F 0.6 °F 7.0 °F 62% 29.48 in 10.0 mi NW 23.0 mph 31.1 mph N/A   Overcast
4:51 PM 18.0 °F 1.3 °F 8.1 °F 65% 29.52 in 4.0 mi NW 20.7 mph 28.8 mph 0.00 in   Haze
5:51 PM 18.0 °F 0.2 °F 3.9 °F 54% 29.57 in 10.0 mi NNW 24.2 mph 36.8 mph N/A   Partly Cloudy
6:51 PM 16.0 °F -0.4 °F -0.0 °F 49% 29.64 in 10.0 mi NW 18.4 mph 31.1 mph N/A   Scattered Clouds
7:51 PM 15.1 °F -1.6 °F 1.0 °F 54% 29.70 in 10.0 mi NNW 18.4 mph 25.3 mph N/A   Overcast
8:51 PM 15.1 °F 3.3 °F 1.0 °F 54% 29.75 in 10.0 mi WNW 9.2 mph - N/A   Mostly Cloudy
9:51 PM 15.1 °F 4.2 °F 3.0 °F 59% 29.79 in 10.0 mi West 8.1 mph - N/A   Overcast
10:51 PM 16.0 °F 4.4 °F 3.0 °F 57% 29.82 in 10.0 mi West 9.2 mph - N/A   Overcast
11:51 PM 15.1 °F 4.2 °F 1.0 °F 54% 29.84 in 10.0 mi West 8.1 mph - N/A   Partly Cloudy